sat.trackr.live / text

‹ back to catalog

STARLINK-5539

NORAD 55747 · 2023-028G

PAYLOAD ACTIVE UNKNOWN

§ Identity

Operator
Country
US
Launch date
2023-03-03
Launch site
AFWTR
Launch vehicle
Mass (kg)
RCS (m²)

Purposes: comms

External: N2YO · Heavens-Above · Gunter

§ Orbital elements

Epoch: 2026-09-20T22:00:03.000096Z

Period
95.65 min
Inclination
70.0009°
Eccentricity
0.0004511
Mean motion
15.05502982 rev/d
Perigee alt
546.8 km
Apogee alt
553.1 km
Semi-major
6,928.1 km
B*
4.1504e-3
RAAN
112.2251°
Arg perigee
307.8420°
Mean anomaly
45.5383°
Rev number
576

§ Raw data

STARLINK-55391 55747U 23028G   26263.91670139  .00060235  00000+0  41504-2 0  99992 55747  70.0009 112.2251 0004511 307.8420  45.5383 15.05502982  5768

JSON: /api/v1/satellites/55747 · /tle

For live sub-satellite position, see the globe view (requires WebGL).

§ Visibility from observer

Set your observer location to see the next 7 days of passes ≥ 10°. The values pass through the URL so the page stays shareable.

No JS? Fill the form by hand. The geolocation button needs JavaScript.